STARLINK-36194, 67130

Orbit data source: Space-Track

STARLINK-36194, 67130 is a payload satellite owned by SpaceX/Seattle (US) in LEO that was launched on Mon, 15 Dec 2025 UTC via an FALCON 9 launch vehicle from the Air Force Eastern Test Range (AFETR). Payload-class satellites include a variety of spacecraft equipped with specific instruments for various scientific and technological missions. These include communications satellites like Starlink; space stations such as the ISS; scientific satellites like the Hubble; Earth observation satellites from companies like Planet Labs, Umbra, and HawkEye 360; GPS; miniature CubeSats for education and research; and military/defense satellites.

Not visible in the next 10 days
Identifier
67130, 2025-299AE
Orbit
LEO
Country
Flag of USUS
Related business
Manufacturer
SpaceX/Seattle
Mission
Operational spacecraft
Bus & Motor
STARLINK V2MO, Unknown motor
Mass
575 kg wet, ~530 kg dry
Launch date (UTC)
2025-12-15 (1 week ago)
Launch vehicle
FALCON 9
Launch site
Air Force Eastern Test Range (AFETR)
Object type
Payload
Rocket body
Debris
Shape & HBR
Unknown
Radar Cross Section
RCS unknown

Expand to show TLE details & history
Last TLE update: 5 hours ago

TLE from 5 hours ago
0 STARLINK-36194
1 67130U 25299AE  25355.58335648 -.01522761  68078-3 -35334-2 0  9994
2 67130  42.9994 262.6337 0002101 265.3165 215.7674 15.96284572  2235
Epoch: 2025-12-21T14:00Z
TLE epoch observation values (Epoch: 2025-12-21T14:00:01.999Z)
Latitude
35.88302°
Longitude
91.75177°
Altitude
287.461 km
Speed
7.74 km/s
True Right ascension
02h 08m 36s
True Declination
35° 42' 30"
Sunlit
Object was in full shadow at epoch
Visualization orbit readout
Latitude
Unknown
Longitude
Unknown
Altitude
Unknown
Speed
Unknown
Apparent Right ascension
Unknown
Apparent Declination
Unknown
Sunlit
N/A
Visualization observer readout
Local Sidereal Time
17:39:59
Azimuth
Unknown
Elevation
Unknown
Doppler factor
Unknown
Orbital elements
Apogee altitude
288.141 km
Perigee altitude
285.34 km
Semi-major axis
6,664.877 km
Eccentricity
0.00021
Inclination
42.9994°
RAAN
262.6337°
Arg. of periapsis
265.3165°
True anomaly
215.75333°
Mean anomaly
215.7674°
Eccentric anomaly
215.76037°
Mean motion
3.98892 °/min
Orbital period
90.25 mins
BSTAR
-0.0035334
Loading maneuver chart data...
Computing Atmospheric mass density...
Loading historical data...
Loading historical data...
Loading historical data...
Loading historical data...
Loading historical data...
Loading historical data...
Loading historical data...

Documentation

Showing up to 5 results
|